www.pogodaiklimat.ru

Погода и климат >> Архив погоды >> Макао >> Макао


ПОГОДА Макао

  • Прогноз погоды Макао
  • Монитор погоды Макао

АРХИВ ПОГОДЫ Макао

Время (UTC), дата Ветер
(напр.,м/с)
 
Видим.   Явления Облачность Т
(С)
Тd
(С)
f
(%)
Тe
(С)
Тes
(С)
Комфортность P
(гПа)
Po
(гПа)
Тmin
(С)
Tmax
(С)
R
(мм)
R24
(мм)
S
(см)
00 13.09 СВ 1 40 км 5/5 600 м
[]
+30.4 +26.0 77 +45 +47 опасность
перегрева
1009.7 1009.0 +27.7
03 13.09 В 3 29 км 3/3 600 м
[]
+31.0 +25.7 73 +46 +56 опасность
перегрева
1009.8 1009.1
06 13.09 В 2 20 км 1/1 300 м
[]
+31.3 +25.9 73 +47 +61 опасность
перегрева
1007.8 1007.1
09 13.09 Ю 4 27 км 3/0
[]
+29.6 +25.3 78 +43 +45 опасность
перегрева
1006.9 1006.2
12 13.09 Ю 1 25 км 1/1 300 м
[]
+28.4 +25.1 82 +41 +41 опасность
перегрева
1008.2 1007.5 +32.0
15 13.09 Ю 2 26 км 6/6 300 м
[]
+28.0 +25.2 85 +41 +41 опасность
перегрева
1009.4 1008.7
18 13.09 Ю 2 25 км 9/9 300 м
[]
+27.7 +25.0 85 +40 +40 очень
душно
1008.6 1007.9
21 13.09 ЮЗ 1 24 км 9/9 1000 м
[]
+27.2 +25.2 89 +39 +39 очень
душно
1008.4 1007.7
00 14.09 З 1 28 км ясно +29.1 +25.0 79 +42 +46 опасность
перегрева
1009.3 1008.6 +26.8
03 14.09 ЮВ 2 29 км ясно +31.1 +24.8 69 +44 +62 опасность
перегрева
1009.5 1008.8
06 14.09 В 2 23 км ясно +32.0 +25.2 67 +46 +62 опасность
перегрева
1007.6 1006.9
09 14.09 ЮВ 2 23 км 8/8 600 м
[]
+29.8 +25.3 77 +44 +44 опасность
перегрева
1007.2 1006.5
12 14.09 Ю 2 26 км 1/0 2000 м
[]
+28.4 +24.8 81 +41 +41 опасность
перегрева
1009.0 1008.3 +32.4
15 14.09 С 2 9000 м слаб. дождь 9/9 1000 м
[]
+24.3 +22.9 92 +32 +32 очень
душно
1010.3 1009.6
18 14.09 С 2 24 км {дождь} 8/8 1000 м
[]
+25.2 +23.6 91 +34 +34 очень
душно
1009.0 1008.3
21 14.09 С 2 16 км 9/9 300 м
[]
+25.9 +24.9 94 +37 +37 очень
душно
1008.4 1007.7
00 15.09 С 2 12 км 8/8 200 м
[]
+29.2 +26.6 86 +45 +46 опасность
перегрева
1009.6 1008.9 +23.8 0.4
03 15.09 В 4 12 км 9/9 200 м
[]
+28.4 +24.6 80 +40 +41 очень
душно
1010.2 1009.5
06 15.09 В 1 18 км 4/0
[]
+30.4 +23.9 68 +42 +57 опасность
перегрева
1007.7 1007.0
09 15.09 ЮВ 2 17 км ясно +29.8 +24.2 72 +42 +44 опасность
перегрева
1006.5 1005.8
12 15.09 Ю 2 16 км ясно +27.8 +24.1 80 +39 +39 очень
душно
1007.8 1007.1 +31.5
15 15.09 ЮЗ 2 18 км ясно +27.7 +23.5 78 +38 +38 очень
душно
1008.8 1008.1
18 15.09 З 3 16 км 9/9 600 м
[]
+27.7 +24.5 83 +39 +39 очень
душно
1008.0 1007.3
21 15.09 Ю 2 10 км гроза 9/9 600 м
[]
+25.8 +24.3 91 +36 +36 очень
душно
1007.8 1007.1
00 16.09 З 2 6000 м в посл. час дождь {гроза, ливн. осадки} 9/9 200 м
[]
+26.7 +25.6 94 +39 +40 очень
душно
1009.7 1009.0 +25.5 2
03 16.09 С 1 19 км 3/0
[]
+31.5 +25.5 71 +46 +63 опасность
перегрева
1009.1 1008.4
12 16.09 ЮВ 2 18 км в посл. час осадки 9/9 1500 м
[]
+28.2 +24.0 78 +39 +39 очень
душно
1007.4 1006.7 +32.7 0.0
15 16.09 ЮВ 1 15 км в посл. час осадки 10/0
[]
+28.2 +24.1 78 +39 +39 очень
душно
1008.7 1008.0
18 16.09 ЮВ 2 12 км {дождь} 9/9 300 м
[]
+27.8 +24.7 83 +39 +39 очень
душно
1008.3 1007.6
21 16.09 ЮВ 1 11 км в посл. час дождь {гроза} 10/0
[]
+25.7 +24.8 95 +36 +36 очень
душно
1008.5 1007.8
00 17.09 С 1 7000 м {гроза, дождь} 9/9 200 м
[]
+28.6 +26.7 89 +44 +45 опасность
перегрева
1010.2 1009.5 +24.0 24
09 17.09 ЮВ 2 9000 м 8/0 2000 м
[]
+27.5 +25.0 86 +39 +41 очень
душно
1008.4 1007.7
12 17.09 ЮВ 2 3700 м слаб. дождь {гроза} 9/9 100 м
[]
+25.7 +25.4 98 +37 +37 очень
душно
1010.2 1009.5 +31.5 20
15 17.09 В 1 6000 м {дождь, дымка} 9/9 600 м
[]
+26.6 +25.4 93 +39 +39 очень
душно
1010.6 1009.9
18 17.09 Ю 2 13 км {дождь, дымка} 9/9 600 м
[]
+26.8 +24.1 85 +37 +37 очень
душно
1010.4 1009.7
21 17.09 С 2 3000 м дымка 9/9 200 м
[]
+26.0 +25.6 98 +38 +38 очень
душно
1010.2 1009.5
00 18.09 С 3 7000 м {дымка} 9/9 300 м
[]
+27.4 +26.1 93 +41 +42 опасность
перегрева
1012.0 1011.3 +25.6 0.0
03 18.09 С 4 8000 м 4/4 300 м
[]
+31.1 +27.1 79 +49 +55 опасность
перегрева
1012.0 1011.3
06 18.09 СВ 3 11 км {дымка} 1/0
[]
+32.0 +24.8 66 +45 +59 опасность
перегрева
1010.1 1009.4
09 18.09 ЮВ 2 9000 м 4/4 1000 м
[]
+29.7 +25.5 78 +44 +45 опасность
перегрева
1009.9 1009.2
12 18.09 ЮВ 2 11 км 9/9 600 м
[]
+28.0 +24.6 82 +40 +40 очень
душно
1011.4 1010.7 +32.6 0.2
15 18.09 Ю 2 12 км 10/10 600 м
[]
+27.6 +24.1 81 +38 +38 очень
душно
1012.5 1011.8
18 18.09 СЗ 1 11 км в посл. час дождь 9/9 300 м
[]
+25.7 +24.0 90 +35 +35 очень
душно
1011.7 1011.0
21 18.09 В 3 11 км {ливн. осадки, морось} 9/9 100 м
[]
+25.4 +24.4 94 +35 +35 очень
душно
1012.0 1011.3
00 19.09 СЗ 1 15 км {ливн. осадки, морось} 9/9 600 м
[]
+27.3 +24.6 85 +39 +39 очень
душно
1013.3 1012.6 +25.1 0.2
03 19.09 С 4 13 км 1/0
[]
+30.6 +23.1 64 +41 +52 опасность
перегрева
1012.8 1012.1
06 19.09 С 4 15 км ясно +31.6 +22.3 58 +41 +52 опасность
перегрева
1010.5 1009.8
09 19.09 С 2 17 км ясно +30.6 +20.7 56 +38 +40 очень
душно
1009.5 1008.8
12 19.09 Ю 2 11 км 5/5 1500 м
[]
+28.2 +22.5 71 +37 +37 очень
душно
1010.9 1010.2 +31.8
15 19.09 Ю 3 12 км 9/9 600 м
[]
+27.3 +23.4 79 +37 +37 очень
душно
1011.4 1010.7
18 19.09 Ю 2 12 км 3/0 2000 м
[]
+25.9 +23.2 85 +35 +35 очень
душно
1010.3 1009.6
21 19.09 З 1 11 км 9/9 600 м
[]
+25.1 +23.3 90 +34 +34 очень
душно
1009.9 1009.2

 

Местоположение метеостанции Макао (Макао): широта 22.15 долгота 113.60 высота над уровнем моря 6 м.

В архиве по умолчанию представлена погода Макао за последнюю неделю. Архивные данные за месяц целиком и за предыдущие месяцы, начиная с января 2011 года, Вы можете получить, выбрав интересующий диапазон дат из раскрывающегося списка и нажав кнопку "Ввод!".


*Определитесь, кто Вы:
робот инопланетянин человек

Внимание! Время в таблицах - всемирное. Для получения местного времени необходимо прибавить поправку, которая равна 8 ч.

Смотрите также архив погоды в соседних городах и на ближайших метеорологических станциях:

Погода в Гонконге (Гонконг) (37 км)
Погода Cheung Chau (Гонконг) (43 км)
Погода Lau Fau Shan (Гонконг) (53 км)
Погода Sha Tin (Гонконг) (68 км)
Погода в Шэньчжэне (Гуандун, Китай) (68 км)
Погода Ta Kwu Ling (Гонконг) (71 км)
Погода на Шанчуан Дао (Гуандун, Китай) (98 км)
Погода в Гуанчжоу (Гуандун, Китай) (117 км)
Погода в Гаояо (Гуандун, Китай) (154 км)
Погода в Янцзяне (Гуандун, Китай) (172 км)

Пояснения к столбцам:

Ветер - указаны скорость ветра в м/с - средняя за 10 мин, порывы в срок и между сроками (в фигурных скобках) и направление, откуда дует ветер: С - северный, СВ - северо-восточный, В - восточный, ЮВ - юго-восточный, Ю - южный, ЮЗ - юго-западный, З - западный, СЗ - северо-западный.
Видимость - горизонтальная дальность видимости в метрах или километрах. При видимости от 1 до 10 км при отсутствии осадков обычно наблюдается дымка, при ухудшении видимости до 1 км и менее - туман. В сухую погоду видимость может ухудшаться дымом, пылью или мглою.
Явления - указаны атмосферные явления, наблюдавшиеся в срок или в последний час перед сроком; фигурными скобками обозначены явления, наблюдавшиеся между сроками (за 1-3 часа до срока); квадратными скобками обозначены град или гололедные отложения с указанием их диаметра в мм.
Облачность - указаны через наклонную черту общая и нижняя облачность в баллах и высота нижней границы облаков в метрах; квадратными скобками обозначены формы облаков: Ci - перистые, Cs - перисто-слоистые, Cc - перисто-кучевые, Ac - высококучевые, As - высокослоистые, Sc - слоисто-кучевые, Ns - слоисто-дождевые, Cu - кучевые, Cb - кучево-дождевые. Подробнее классификацию облаков см. в Атласе облаков (PDF).
T - Температура воздуха - температура, измеренная на высоте 2 м над землей.
Td - Температура точки росы - температура, при понижении до которой содержащийся в воздухе водяной пар достигнет насыщения.
f - Относительная влажность воздуха - влажноcть воздуха, измеренная на высоте 2 м над землей.
Te - Эффективная температура - температура, которую ощущает одетый по сезону человек в тени. Характеристика душности погоды. При расчете учитывается влияние влажности воздуха и скорости ветра на теплоощущения человека.
Tes - Эффективная температура на солнце - температура, которую ощущает человек, с поправкой на солнечный нагрев. Характеристика знойности погоды. Зависит от высоты солнца над горизонтом, облачности и скорости ветра. Ночью, в пасмурную погоду, а также при ветре 12 м/с и более поправка равна нулю.
P - Атмосферное давление - приведенное к уровню моря атмосферное давление.
Po - Атмосферное давление - измеренное на уровне метеостанции атмосферное давление.
Tmin - Минимальная температура - минимум температуры воздуха на высоте 2 м над землей.
Tmax - Максимальная температура - максимум температуры воздуха на высоте 2 м над землей.
R - Количество осадков - Количество выпавших осадков за период времени, мм. При наведении курсора мыши на число - период времени, за который выпало указанное количество осадков.
R24 - Количество осадков - Количество выпавших осадков за 24 часа, мм.
S - Снежный покров - Высота снежного покрова, см. При наведении курсора мыши на число - состояние снежного покрова и степень покрытия местности в баллах.